| time (UTC) | temp C | wind direction | speed KPH | gust KPH | rain 1hr cm | rain 24hr cm | rain mn cm | humidity % | barometer mb |
| 20260502123101 | 6 | 334 | 3.2 | 12.9 | 0.00 | 0.28 | 0.05 | 83 | 1012.5 |
| 20260502121552 | 6 | 265 | 1.6 | 9.7 | 0.00 | 0.28 | 0.05 | 84 | 1012.6 |
| 20260502114552 | 6 | 291 | 1.6 | 12.9 | 0.00 | 0.28 | 0.05 | 86 | 1012.4 |
| 20260502113052 | 6 | 265 | 1.6 | 9.7 | 0.00 | 0.28 | 0.05 | 87 | 1012.2 |
| 20260502111554 | 6 | 315 | 1.6 | 9.7 | 0.00 | 0.28 | 0.05 | 88 | 1012.0 |
| 20260502110059 | 6 | 5 | 1.6 | 11.3 | 0.00 | 0.28 | 0.05 | 89 | 1011.9 |
| 20260502104555 | 6 | 271 | 1.6 | 12.9 | 0.00 | 0.28 | 0.05 | 90 | 1012.0 |
| 20260502103055 | 6 | 5 | 1.6 | 14.5 | 0.00 | 0.28 | 0.05 | 90 | 1011.7 |
| 20260502101616 | 6 | 0 | 0.0 | 8.0 | 0.00 | 0.28 | 0.05 | 91 | 1011.5 |
| 20260502100116 | 7 | 360 | 1.6 | 12.9 | 0.00 | 0.28 | 0.05 | 91 | 1011.2 |
| 20260502070053 | 8 | 0 | 0.0 | 0.0 | 0.00 | 0.28 | 0.05 | 92 | 1011.4 |
| 20260502064548 | 8 | 0 | 0.0 | 1.6 | 0.03 | 0.28 | 0.05 | 92 | 1011.3 |
| 20260502063050 | 8 | 0 | 0.0 | 0.0 | 0.03 | 0.28 | 0.05 | 91 | 1011.4 |
| 20260502061549 | 8 | 0 | 0.0 | 0.0 | 0.03 | 0.28 | 0.05 | 91 | 1011.4 |
| 20260502060053 | 8 | 0 | 0.0 | 3.2 | 0.03 | 0.28 | 0.05 | 91 | 1011.4 |
| 20260502054555 | 8 | 0 | 0.0 | 1.6 | 0.00 | 0.25 | 0.03 | 91 | 1011.7 |
| 20260502053110 | 8 | 0 | 0.0 | 3.2 | 0.00 | 0.25 | 0.03 | 91 | 1011.3 |
| 20260502051547 | 8 | 0 | 0.0 | 1.6 | 0.00 | 0.25 | 0.03 | 91 | 1011.4 |
| 20260502050054 | 8 | 0 | 0.0 | 0.0 | 0.03 | 0.25 | 0.03 | 91 | 1011.8 |
| 20260502044552 | 8 | 0 | 0.0 | 1.6 | 0.13 | 0.25 | 0.03 | 90 | 1011.9 |
| 20260502043101 | 8 | 0 | 0.0 | 1.6 | 0.18 | 0.25 | 0.03 | 89 | 1011.7 |
| 20260502041554 | 8 | 352 | 0.0 | 1.6 | 0.20 | 0.25 | 0.03 | 89 | 1011.5 |
| 20260502040052 | 8 | 0 | 0.0 | 1.6 | 0.23 | 0.23 | 0.00 | 87 | 1011.8 |
| 20260502034548 | 9 | 0 | 0.0 | 3.2 | 0.13 | 0.13 | 0.13 | 85 | 1011.9 |
| 20260502033103 | 9 | 0 | 0.0 | 1.6 | 0.08 | 0.08 | 0.08 | 83 | 1011.7 |
| 20260502031553 | 10 | 0 | 0.0 | 1.6 | 0.05 | 0.05 | 0.05 | 80 | 1011.5 |
| 20260502030059 | 10 | 0 | 0.0 | 3.2 | 0.00 | 0.00 | 0.00 | 76 | 1011.6 |
| 20260502024555 | 11 | 348 | 1.6 | 8.0 | 0.00 | 0.00 | 0.00 | 71 | 1011.3 |
| 20260502023108 | 11 | 0 | 0.0 | 6.4 | 0.00 | 0.00 | 0.00 | 65 | 1011.4 |
| 20260502021552 | 12 | 0 | 0.0 | 4.8 | 0.00 | 0.00 | 0.00 | 60 | 1011.3 |
| 20260502020052 | 12 | 0 | 0.0 | 1.6 | 0.00 | 0.00 | 0.00 | 57 | 1011.3 |
| 20260502014551 | 12 | 0 | 0.0 | 3.2 | 0.00 | 0.00 | 0.00 | 56 | 1011.3 |
| 20260502013052 | 12 | 0 | 0.0 | 4.8 | 0.00 | 0.00 | 0.00 | 55 | 1011.1 |
| 20260502011558 | 12 | 360 | 0.0 | 3.2 | 0.00 | 0.00 | 0.00 | 53 | 1010.9 |
| 20260502010053 | 13 | 0 | 0.0 | 0.0 | 0.00 | 0.00 | 0.00 | 52 | 1010.8 |
| 20260502004609 | 13 | 0 | 0.0 | 3.2 | 0.00 | 0.00 | 0.00 | 51 | 1010.9 |
| 20260502003051 | 13 | 0 | 0.0 | 1.6 | 0.00 | 0.00 | 0.00 | 50 | 1010.8 |
| 20260502001551 | 13 | 0 | 0.0 | 3.2 | 0.00 | 0.00 | 0.00 | 50 | 1010.7 |
| 20260502000049 | 13 | 247 | 0.0 | 4.8 | 0.00 | 0.00 | 0.00 | 48 | 1010.7 |
| 20260501234549 | 13 | 0 | 0.0 | 4.8 | 0.00 | 0.00 | 0.00 | 47 | 1010.7 |
| 20260501233052 | 14 | 0 | 0.0 | 6.4 | 0.00 | 0.00 | 0.00 | 46 | 1010.4 |
| 20260501231559 | 14 | 270 | 0.0 | 9.7 | 0.00 | 0.00 | 0.00 | 45 | 1010.2 |
| 20260501230053 | 15 | 275 | 0.0 | 12.9 | 0.00 | 0.00 | 0.00 | 44 | 1010.0 |
| 20260501224552 | 15 | 24 | 1.6 | 6.4 | 0.00 | 0.00 | 0.00 | 42 | 1009.8 |
| 20260501223108 | 15 | 0 | 1.6 | 8.0 | 0.00 | 0.00 | 0.00 | 43 | 1009.6 |
| 20260501221618 | 15 | 0 | 1.6 | 9.7 | 0.00 | 0.00 | 0.00 | 42 | 1009.6 |
| 20260501220052 | 15 | 0 | 1.6 | 6.4 | 0.00 | 0.00 | 0.00 | 41 | 1009.6 |
| 20260501214557 | 15 | 267 | 0.0 | 8.0 | 0.00 | 0.00 | 0.00 | 42 | 1009.5 |
| 20260501213109 | 15 | 34 | 4.8 | 16.1 | 0.00 | 0.00 | 0.00 | 39 | 1009.5 |
| 20260501211555 | 15 | 19 | 1.6 | 12.9 | 0.00 | 0.00 | 0.00 | 40 | 1009.5 |
| 20260501210055 | 16 | 0 | 1.6 | 8.0 | 0.00 | 0.00 | 0.00 | 39 | 1009.4 |
| 20260501204559 | 16 | 352 | 0.0 | 6.4 | 0.00 | 0.00 | 0.00 | 42 | 1009.5 |
| 20260501203105 | 15 | 9 | 1.6 | 11.3 | 0.00 | 0.00 | 0.00 | 40 | 1009.6 |
| 20260501201554 | 15 | 346 | 1.6 | 9.7 | 0.00 | 0.00 | 0.00 | 39 | 1009.5 |
| 20260501200058 | 16 | 27 | 1.6 | 11.3 | 0.00 | 0.00 | 0.00 | 38 | 1009.4 |
| 20260501194600 | 16 | 271 | 1.6 | 6.4 | 0.00 | 0.00 | 0.00 | 40 | 1009.6 |
| 20260501193052 | 15 | 9 | 1.6 | 6.4 | 0.00 | 0.00 | 0.00 | 40 | 1009.6 |
| 20260501191558 | 15 | 261 | 4.8 | 16.1 | 0.00 | 0.00 | 0.00 | 39 | 1010.0 |
| 20260501190053 | 15 | 41 | 1.6 | 11.3 | 0.00 | 0.00 | 0.00 | 39 | 1010.0 |
| 20260501184609 | 16 | 325 | 4.8 | 16.1 | 0.00 | 0.00 | 0.00 | 37 | 1010.0 |
| 20260501183057 | 16 | 277 | 8.0 | 17.7 | 0.00 | 0.00 | 0.00 | 37 | 1010.2 |
| 20260501181556 | 16 | 13 | 4.8 | 9.7 | 0.00 | 0.00 | 0.00 | 38 | 1010.4 |
| 20260501180059 | 16 | 294 | 3.2 | 14.5 | 0.00 | 0.00 | 0.00 | 37 | 1010.4 |
| 20260501174555 | 15 | 342 | 3.2 | 14.5 | 0.00 | 0.00 | 0.00 | 37 | 1010.8 |
| 20260501173111 | 15 | 254 | 6.4 | 17.7 | 0.00 | 0.00 | 0.00 | 36 | 1010.9 |
| 20260501171552 | 15 | 5 | 3.2 | 16.1 | 0.00 | 0.00 | 0.00 | 38 | 1010.8 |
| 20260501170053 | 15 | 271 | 4.8 | 11.3 | 0.00 | 0.00 | 0.00 | 41 | 1011.1 |
| 20260501164602 | 14 | 352 | 6.4 | 22.5 | 0.00 | 0.00 | 0.00 | 41 | 1011.1 |
| 20260501163052 | 14 | 284 | 3.2 | 12.9 | 0.00 | 0.00 | 0.00 | 41 | 1011.2 |
| 20260501161552 | 14 | 0 | 4.8 | 16.1 | 0.00 | 0.00 | 0.00 | 43 | 1011.2 |
| 20260501160054 | 13 | 350 | 4.8 | 20.9 | 0.00 | 0.00 | 0.00 | 44 | 1011.2 |
| 20260501154553 | 13 | 65 | 3.2 | 20.9 | 0.00 | 0.03 | 0.00 | 45 | 1011.3 |
| 20260501153053 | 13 | 270 | 6.4 | 17.7 | 0.00 | 0.03 | 0.00 | 45 | 1011.5 |
| 20260501151555 | 13 | 266 | 4.8 | 12.9 | 0.00 | 0.03 | 0.00 | 46 | 1011.6 |
| 20260501150100 | 13 | 275 | 3.2 | 19.3 | 0.00 | 0.03 | 0.00 | 49 | 1011.7 |